Fort Knox, KY

12:47 PM EST on December 12, 2019 (GMT -0500)
Godman Army Air Field

Weather History for KFTK - October, 2019

Change the Weather History Date:

Tuesday, October 8, 2019

  Actual Average Record
Temperature  
Mean Temperature 58 °F -  
Max Temperature 71 °F 69 °F 90 °F (2007)
Min Temperature 46 °F 47 °F 28 °F (2000)
Degree Days  
Heating Degree Days 6    
Growing Degree Days 8 (Base 50)    
Moisture  
Dew Point 47 °F    
Average Humidity 80    
Maximum Humidity 100    
Minimum Humidity 28    
Precipitation  
Precipitation 0.00 in - - ()
Sea Level Pressure  
Sea Level Pressure 30.20 in    
Wind  
Wind Speed 4 mph (NE)    
Max Wind Speed 13 mph    
Max Gust Speed 20 mph    
Visibility 5 miles    
Events Fog    
Averages and records for this station are not official NWS values.
T = Trace of Precipitation, MM = Missing Value Source: NWS Daily Summary

Daily Weather History Graph

Daily Weather History Graph

Search for Another Location

Airport or City:

Astronomy

Oct. 08, 2019 Rise Set
Actual Time 7:45 AM EDT 7:16 PM EDT
Civil Twilight 7:19 AM EDT 7:42 PM EDT
Nautical Twilight 6:48 AM EDT 8:13 PM EDT
Astronomical Twilight 6:18 AM EDT 8:43 PM EDT
Moon 5:09 PM EDT (10/8) 2:41 AM EDT (10/8)
Length of Visible Light 12h 23m
Length of Day
11h 31m
Waxing Gibbous, 77% of the Moon is Illuminated
Oct 8
Waxing Gibbous
Oct 13
Full
Oct 21
Last Quarter
Oct 27
New
Nov 4
First Quarter

Hourly Weather History & Observations

Time (EDT) Temp. Windchill Dew Point Humidity Pressure Visibility Wind Dir Wind Speed Gust Speed Precip Events Conditions
12:56 AM 48.4 °F - 48.4 °F 100% 30.23 in 1.2 mi Calm Calm - N/A   Clear
1:11 AM 48.2 °F - 48.2 °F 100% 30.22 in 1.1 mi Calm Calm - N/A   Clear
1:26 AM 48.2 °F - 48.2 °F 100% 30.22 in 1.4 mi Calm Calm - N/A   Clear
1:56 AM 46.8 °F - 46.8 °F 100% 30.22 in 1.2 mi North 3.5 mph - N/A   Clear
2:01 AM 46.4 °F 45.2 °F 46.4 °F 100% 30.22 in 1.0 mi NNE 3.5 mph - N/A   Clear
2:11 AM 46.4 °F 45.2 °F 46.4 °F 100% 30.21 in 1.2 mi NNE 3.5 mph - N/A   Clear
2:26 AM 48.2 °F - 48.2 °F 100% 30.21 in 10.0 mi North 4.6 mph - N/A   Clear
2:56 AM 48.0 °F - 48.0 °F 100% 30.21 in 10.0 mi North 5.8 mph - N/A   Clear
3:56 AM 48.9 °F - 48.9 °F 100% 30.20 in 10.0 mi North 4.6 mph - N/A   Clear
4:56 AM 47.7 °F - 47.7 °F 100% 30.20 in 1.0 mi North 5.8 mph - N/A   Clear
5:11 AM 48.2 °F - 48.2 °F 100% 30.20 in 0.5 mi North 4.6 mph - N/A Fog Fog
5:26 AM 48.2 °F - 48.2 °F 100% 30.20 in 0.4 mi NNE 3.5 mph - N/A Fog Fog
5:56 AM 49.6 °F - 49.6 °F 100% 30.21 in 0.2 mi North 5.8 mph - N/A Fog Fog
6:26 AM 50.0 °F - 50.0 °F 100% 30.22 in 0.5 mi NNE 3.5 mph - N/A Fog Fog
6:51 AM 50.0 °F - 50.0 °F 100% 30.22 in 1.1 mi NE 3.5 mph - N/A   Mist
6:56 AM 49.3 °F - 49.3 °F 100% 30.22 in 1.5 mi Calm Calm - N/A   Mist
7:11 AM 50.0 °F - 50.0 °F 100% 30.22 in 0.8 mi North 3.5 mph - N/A   Mist
7:26 AM 50.0 °F - 50.0 °F 100% 30.22 in 0.4 mi NNE 3.5 mph - N/A Fog Fog
7:56 AM 48.7 °F - 48.7 °F 100% 30.22 in 0.4 mi North 3.5 mph - N/A Fog Fog
8:41 AM 50.0 °F - 50.0 °F 100% 30.22 in 0.6 mi NNE 5.8 mph - N/A   Mist
9:11 AM 50.0 °F - 50.0 °F 100% 30.23 in 0.8 mi ENE 6.9 mph - N/A   Mist
9:21 AM 50.0 °F - 50.0 °F 100% 30.24 in 1.5 mi ENE 6.9 mph - N/A   Overcast
9:36 AM 50.0 °F - 50.0 °F 100% 30.24 in 0.8 mi ENE 6.9 mph - N/A   Mist
9:46 AM 50.0 °F - 50.0 °F 100% 30.24 in 1.5 mi ENE 9.2 mph - N/A   Overcast
9:56 AM 50.4 °F - 50.4 °F 100% 30.25 in 2.2 mi ENE 6.9 mph - N/A   Mostly Cloudy
10:11 AM 51.8 °F - 51.8 °F 100% 30.24 in 3.0 mi NNE 5.8 mph - N/A   Mostly Cloudy
10:26 AM 53.6 °F - 53.6 °F 100% 30.24 in 9.0 mi ENE 9.2 mph - N/A   Scattered Clouds
10:56 AM 55.6 °F - 55.6 °F 100% 30.24 in 10.0 mi ENE 10.4 mph - N/A   Clear
11:56 AM 62.1 °F - 48.4 °F 61% 30.23 in 10.0 mi ENE 10.4 mph - N/A   Clear
12:56 PM 66.6 °F - 43.9 °F 44% 30.22 in 10.0 mi ENE 12.7 mph - N/A   Clear
1:11 PM 66.2 °F - 42.8 °F 43% 30.20 in 10.0 mi NE 11.5 mph 19.6 mph N/A   Clear
1:56 PM 69.3 °F - 41.2 °F 36% 30.19 in 10.0 mi NNE 8.1 mph - N/A   Clear
2:19 PM 69.8 °F - 39.2 °F 33% 30.17 in 10.0 mi NNE 8.1 mph - N/A   Clear
2:56 PM 70.2 °F - 38.8 °F 32% 30.16 in 10.0 mi NE 11.5 mph 17.3 mph N/A   Clear
3:40 PM 71.6 °F - 39.2 °F 31% 30.14 in 10.0 mi ENE 10.4 mph - N/A   Clear
3:56 PM 70.9 °F - 37.9 °F 30% 30.14 in 10.0 mi East 12.7 mph - N/A   Clear
4:56 PM 71.4 °F - 36.7 °F 28% 30.13 in 10.0 mi ENE 8.1 mph - N/A   Clear
5:56 PM 70.2 °F - 38.1 °F 31% 30.13 in 10.0 mi NE 5.8 mph - N/A   Clear
6:56 PM 66.7 °F - 43.0 °F 42% 30.14 in 10.0 mi North 3.5 mph - N/A   Clear
7:56 PM 60.1 °F - 43.3 °F 54% 30.14 in 10.0 mi NNE 5.8 mph - N/A   Clear
8:56 PM 60.4 °F - 42.8 °F 52% 30.15 in 10.0 mi NE 4.6 mph - N/A   Clear
9:56 PM 58.1 °F - 42.1 °F 55% 30.14 in 10.0 mi NE 3.5 mph - N/A   Clear
10:56 PM 54.1 °F - 42.6 °F 65% 30.14 in 10.0 mi NNE 3.5 mph - N/A   Clear
11:56 PM 50.5 °F - 45.5 °F 83% 30.15 in 10.0 mi Calm Calm - N/A   Clear